Theta_e
292 292 291 292 292 292 291 289 287 286 285 285 285 284 284 283 283 282 282 282 280 280 279 279 279 278 277 277 278 277 277 276 274 274 276 276 276 275 276 275 276 275 275
292 293 292 292 291 289 287 286 285 284 285 285 285 284 284 283 282 282 281 280 279 279 279 278 278 279 276 277 276 276 276 276 274 272 274 274 274 274 274 273 274 275 274
293 292 290 288 286 285 284 284 284 283 283 284 284 283 283 282 282 281 280 280 280 280 279 278 277 277 276 276 275 275 276 276 275 273 272 274 273 273 273 273 272 273 275
290 288 286 285 285 284 284 283 283 282 282 282 282 282 282 282 282 281 280 280 279 279 280 279 277 277 276 276 276 275 275 274 273 272 272 271 271 273 272 269 269 271 271
287 286 285 285 284 283 282 282 282 281 281 280 280 281 281 281 282 280 280 278 278 277 278 278 278 278 280 278 277 276 275 273 272 271 270 270 270 269 268 270 269 269 270
286 285 284 283 282 281 281 280 280 280 279 279 279 279 279 281 284 284 281 279 279 278 277 277 277 277 278 278 278 278 277 273 272 270 270 269 269 268 269 269 268 266 263
284 284 283 282 281 280 280 280 279 278 278 278 278 278 278 279 284 284 283 279 278 277 277 278 277 278 276 276 277 277 275 275 275 272 270 269 268 269 269 268 267 265 264
283 283 282 281 280 280 279 278 278 278 277 277 277 277 277 278 283 284 283 279 277 277 277 277 276 276 276 276 275 273 273 272 272 273 271 269 270 270 269 269 266 264 264
283 282 281 280 279 279 278 277 277 276 276 276 277 276 276 276 282 283 282 279 278 277 277 276 276 275 277 278 274 272 271 271 273 273 272 272 272 271 271 265 261 260 258
284 283 281 280 279 278 278 277 277 276 277 276 277 276 276 276 280 282 281 279 276 276 276 276 278 276 278 278 273 271 268 269 268 264 265 266 266 266 268 265 263 258 259
283 281 279 279 278 278 277 276 274 274 275 274 274 274 274 275 276 281 282 278 276 276 275 274 274 278 278 277 275 269 269 266 262 260 261 262 262 263 263 263 263 262 259
278 277 277 275 276 276 274 273 272 272 271 271 270 271 273 274 276 279 281 282 280 276 274 274 274 277 277 276 272 272 273 265 258 256 255 257 260 260 261 262 262 262 262
272 272 271 271 274 274 273 271 270 270 271 271 271 271 271 272 273 279 280 281 281 277 275 275 277 277 276 272 271 271 263 260 257 253 255 258 260 260 260 260 260 260 260
272 272 270 270 270 269 273 273 272 270 270 271 270 271 271 270 272 273 275 277 279 278 277 275 274 272 271 269 265 265 264 261 258 256 255 258 258 256 257 259 257 257 256
270 269 270 270 269 270 271 272 273 273 273 271 271 271 269 269 272 275 275 272 272 273 267 266 264 264 264 263 262 260 259 258 257 256 254 253 256 257 257 257 256 255 253
271 271 270 270 269 270 270 271 277 279 279 279 280 275 272 276 278 279 280 279 278 278 266 265 264 264 263 262 261 260 259 257 256 254 251 252 254 255 255 255 254 249 252
270 271 269 269 269 270 269 270 271 275 279 281 282 282 282 281 279 280 280 280 280 278 269 264 265 263 262 261 260 259 258 258 254 252 253 252 252 252 253 253 253 253 252
266 267 267 270 268 267 269 270 269 270 271 273 275 280 282 282 282 280 280 280 276 277 265 264 263 261 261 260 259 258 257 256 254 253 252 249 247 251 250 248 251 248 250
265 265 263 266 264 267 267 267 269 269 269 271 268 271 275 280 281 282 281 277 269 267 261 260 260 260 259 258 257 256 255 254 252 249 248 246 246 248 247 247 248 251 251
260 263 264 264 265 265 267 268 269 269 269 269 269 269 269 268 272 275 278 273 267 265 263 261 259 258 257 256 255 254 254 253 248 247 248 245 246 247 248 248 246 248 248
261 262 263 263 264 266 267 268 268 269 269 269 269 270 273 268 270 272 270 264 264 262 260 259 257 257 257 255 254 254 254 254 251 248 247 244 243 244 245 249 248 246 247
260 261 261 261 265 264 265 267 267 267 267 267 268 267 274 273 268 268 262 261 261 260 260 259 258 258 257 256 255 255 254 253 250 249 247 244 243 243 244 245 244 245 245
260 261 262 263 263 264 264 265 265 265 265 266 266 266 263 267 267 263 261 258 257 258 257 258 258 257 256 256 255 255 253 253 252 250 247 245 244 243 243 244 244 243 243
259 260 261 262 263 263 263 264 264 264 265 265 265 265 265 264 262 260 260 259 258 258 259 258 258 257 257 255 254 252 252 252 251 250 249 247 245 244 243 243 244 245 248
257 258 259 260 261 262 263 263 264 264 264 264 265 263 261 260 258 259 259 259 259 259 258 257 257 257 256 255 255 254 252 256 254 251 248 247 246 243 242 243 245 246 247
259 258 259 260 260 261 262 263 263 263 263 263 262 261 260 259 259 259 259 259 259 258 258 257 257 256 255 255 255 256 255 257 253 252 249 249 248 248 246 248 247 248 247
Wind_Speed
8 8 8 7 7 7 5 6 5 6 6 5 6 6 6 5 5 5 5 5 6 5 4 5 4 4 3 3 2 2 1 2 4 5 5 7 8 8 9 8 10 11 10
6 8 8 6 6 4 4 5 6 6 5 5 5 6 5 5 5 5 5 5 5 5 4 4 4 3 2 2 1 2 2 3 4 9 8 6 9 8 8 11 10 10 11
6 7 7 7 7 6 5 6 6 7 6 5 5 6 5 5 5 4 5 5 4 4 5 5 4 3 1 1 1 3 2 5 4 6 7 7 7 8 10 9 10 10 10
5 6 6 6 6 6 5 5 5 5 5 5 5 5 5 5 4 4 5 4 4 4 4 5 5 4 3 0 1 2 4 4 5 6 7 8 7 8 9 11 11 9 12
6 5 5 5 5 6 6 6 5 5 5 5 5 5 5 4 3 4 4 5 5 5 5 4 4 5 4 1 1 2 3 4 5 6 7 7 8 10 12 10 11 12 11
6 6 6 6 6 5 5 5 5 5 5 5 5 6 5 3 8 8 6 4 5 5 5 4 4 5 3 2 3 7 5 5 7 6 6 7 9 9 8 10 10 12 13
6 6 6 6 6 6 5 5 5 6 5 5 5 5 6 5 10 9 8 3 4 5 5 5 5 4 4 3 4 4 6 7 9 7 7 8 10 10 11 12 11 11 11
6 6 6 6 6 6 6 6 5 4 5 5 6 6 5 6 12 11 10 4 4 6 5 6 5 5 5 5 2 2 3 2 4 4 5 7 8 9 9 10 11 11 9
6 6 7 6 6 6 6 6 5 4 5 6 5 7 7 6 13 13 10 5 6 6 6 5 5 5 7 5 2 3 3 4 4 7 12 14 15 15 14 7 7 10 9
8 7 6 6 6 7 7 6 4 4 6 5 7 7 7 6 13 15 12 5 6 4 5 5 9 7 8 7 3 3 3 3 3 4 6 9 10 9 14 7 6 7 8
4 6 6 7 8 7 6 4 4 5 5 5 6 4 6 7 8 17 18 7 6 5 5 4 3 10 8 8 4 3 4 4 3 1 3 4 5 4 5 5 6 6 7
5 5 6 6 5 4 5 4 3 4 4 5 4 5 5 6 11 16 19 18 13 6 6 4 5 12 9 7 3 6 6 4 2 2 2 2 3 4 5 6 7 6 8
3 4 4 3 4 4 5 3 2 4 5 6 6 6 7 5 6 18 19 20 19 9 5 8 13 12 9 4 4 5 5 1 1 1 2 2 3 6 7 5 5 6 8
4 4 2 3 3 3 3 4 5 5 6 7 6 8 7 5 6 6 7 9 17 12 10 6 6 6 6 3 1 1 0 1 1 2 2 2 3 3 3 5 6 7 7
3 3 4 3 4 4 6 6 7 7 9 7 8 7 6 7 9 14 13 8 7 7 5 2 2 2 2 2 1 2 2 1 1 1 1 2 3 3 5 3 4 6 5
5 3 3 3 3 4 5 8 16 22 21 21 23 13 7 17 17 17 21 21 20 19 4 4 4 3 4 3 3 3 2 2 2 2 2 2 2 4 5 5 3 2 7
6 5 3 4 4 5 4 7 10 7 16 23 25 23 23 19 17 19 19 21 21 20 5 4 4 5 4 4 4 3 2 2 2 2 2 2 1 2 4 4 5 6 8
4 5 4 4 3 3 5 7 6 7 9 8 11 18 21 22 21 19 19 17 9 13 3 5 5 4 4 4 3 3 2 1 2 2 2 2 2 2 2 2 4 3 7
3 3 3 4 3 5 4 5 7 7 8 9 4 8 11 19 21 21 23 11 7 6 4 3 3 4 4 3 3 3 3 3 2 2 2 2 2 2 3 2 3 6 7
3 6 5 4 5 4 5 6 7 7 8 8 7 8 4 3 8 10 10 8 7 5 6 5 5 4 4 4 3 3 3 3 2 3 3 2 2 2 2 3 2 4 5
4 4 6 4 5 5 6 7 7 7 8 8 8 7 13 8 8 10 7 4 6 5 5 5 4 4 4 4 3 3 3 3 3 3 2 2 2 2 3 3 3 3 4
3 4 4 5 5 5 6 6 6 7 8 9 8 7 19 8 8 7 4 4 4 4 5 6 5 5 5 5 5 4 3 4 3 3 3 2 3 3 2 2 2 3 3
4 6 6 6 5 7 7 7 7 8 8 8 8 7 5 7 6 6 6 5 5 5 5 5 5 4 4 4 4 4 4 5 4 3 3 3 3 3 3 3 3 3 2
5 6 8 8 7 7 7 8 8 9 9 8 8 7 7 6 5 5 5 6 6 5 5 5 4 5 4 4 3 4 4 4 3 5 6 4 4 4 3 3 3 4 5
5 7 7 7 8 8 8 8 8 8 8 8 8 7 5 4 4 5 6 6 6 6 6 5 4 5 6 6 6 7 7 9 7 7 4 5 6 5 4 3 3 4 5
7 7 7 7 8 8 8 9 9 8 8 8 7 6 5 5 5 6 5 5 5 5 5 4 5 6 6 5 7 8 8 9 8 11 7 6 6 5 4 5 6 4 5
Wind_Direction
110 116 119 97 81 88 115 135 137 120 133 127 120 115 107 104 105 99 105 106 101 100 97 105 98 88 76 59 53 27 9 322 293 292 307 317 323 316 322 327 319 323 323
111 128 114 122 126 141 142 121 131 125 117 119 121 109 112 118 125 130 127 128 137 134 139 121 128 107 71 53 54 18 340 306 302 310 312 325 320 327 320 322 327 326 321
173 147 144 147 142 134 146 148 134 128 138 135 126 130 145 149 145 136 144 150 156 159 161 161 160 144 136 26 54 9 310 330 316 307 305 317 317 325 323 323 325 323 317
157 156 153 143 145 153 156 138 129 146 143 137 145 150 157 153 152 156 163 168 176 175 178 168 173 172 159 220 68 331 345 329 324 309 314 315 324 332 329 328 330 331 323
161 162 163 147 141 160 150 147 154 148 150 144 152 157 166 169 169 181 182 187 186 182 192 181 188 187 176 178 7 332 341 333 311 319 313 322 328 340 340 332 324 323 322
168 174 156 157 158 169 162 160 155 155 155 158 182 182 187 192 196 193 188 200 201 191 195 197 194 161 188 223 322 331 339 319 322 322 320 322 325 329 325 327 324 329 330
173 173 171 161 175 187 175 166 177 177 170 194 197 194 204 205 208 209 209 207 210 209 202 196 197 177 196 217 290 317 320 317 328 322 314 330 323 327 328 324 326 327 311
186 180 171 178 190 187 184 193 193 180 193 203 208 204 206 210 217 217 218 210 225 220 211 202 205 187 206 213 211 264 280 298 295 306 345 325 317 329 330 332 336 311 300
199 197 196 187 191 190 201 202 198 191 207 210 207 209 211 210 222 221 221 206 223 219 210 202 209 196 212 249 198 260 284 283 303 338 337 335 337 339 339 350 336 334 324
208 202 193 194 199 204 205 200 191 204 214 208 222 214 211 215 224 227 226 208 222 211 200 205 214 198 224 259 210 194 266 286 343 353 344 342 339 332 349 351 331 324 324
173 190 200 202 207 209 202 186 191 209 216 221 228 224 216 210 225 232 229 215 216 213 200 202 206 223 243 257 256 181 238 111 347 25 330 323 315 320 327 321 320 314 307
182 197 207 209 209 191 191 205 205 191 211 232 233 250 236 223 221 234 236 233 222 211 207 200 201 226 240 253 219 270 308 69 56 6 345 283 312 317 314 311 311 299 292
176 214 216 210 209 196 200 198 206 196 217 234 229 240 246 222 223 234 235 238 236 221 198 213 214 229 235 254 260 273 92 111 120 6 294 275 304 306 302 308 300 286 290
215 228 222 220 228 224 221 209 219 218 224 232 231 239 243 225 222 213 225 232 237 229 215 210 194 205 205 188 121 312 228 196 187 241 254 279 294 297 311 316 318 324 315
233 235 233 224 225 241 234 228 231 237 217 224 233 225 221 236 232 220 210 208 208 194 120 108 153 191 204 209 224 232 236 226 301 270 277 288 291 309 315 318 318 326 314
260 254 240 234 231 239 246 272 248 251 248 249 253 231 234 246 258 247 232 222 219 215 144 179 187 195 214 203 219 234 219 219 225 209 245 245 279 312 315 319 318 311 310
241 257 252 240 240 245 241 248 277 276 259 258 255 251 253 245 240 246 239 226 220 218 189 183 197 190 203 210 217 216 229 214 175 220 237 262 257 285 309 309 317 311 310
282 280 270 273 257 257 253 257 251 263 280 280 256 255 255 250 248 235 238 235 221 222 156 178 187 180 199 211 208 213 239 232 224 234 240 245 256 241 287 290 302 287 302
305 284 261 269 250 252 255 251 256 259 260 270 282 272 258 261 248 240 230 223 196 195 170 157 157 178 194 194 203 210 219 241 223 227 247 223 249 193 271 258 273 285 294
304 285 273 268 276 266 255 258 265 257 260 260 257 252 244 209 237 237 234 205 180 178 171 175 172 171 185 190 189 197 226 233 222 220 239 228 244 204 234 259 257 288 291
296 299 294 292 271 264 259 257 256 259 260 259 256 249 242 231 236 234 219 195 176 164 159 163 161 174 181 181 184 200 217 239 222 231 231 238 238 256 234 240 259 260 268
290 289 285 275 281 270 264 259 261 263 260 262 263 246 259 254 219 225 196 177 163 148 150 156 168 182 179 182 185 196 213 234 209 223 223 223 227 244 242 242 263 261 270
300 304 302 288 265 274 273 261 258 258 260 260 259 253 226 244 228 203 189 165 157 153 147 155 169 169 177 182 184 192 207 223 214 183 194 208 221 229 209 235 244 272 269
301 294 290 289 287 278 272 273 268 262 263 265 260 249 241 233 217 189 170 158 155 157 159 158 162 175 175 183 190 201 216 224 196 203 197 194 219 221 204 220 227 244 266
294 295 292 289 289 287 286 278 272 267 262 260 260 246 237 220 197 187 169 168 164 159 152 156 168 185 201 208 217 214 217 233 212 196 191 190 213 209 208 210 220 253 254
295 289 286 287 285 284 283 285 282 278 269 264 258 248 232 216 202 185 172 157 141 140 150 164 176 193 206 223 237 241 232 228 219 211 192 195 206 219 192 220 235 232 244